CZ-4 DEB, 26205

Orbit data source: Space-Track

CZ-4 DEB, 26205 is space debris in SSO originally from a launch on Thu, 14 Oct 1999 UTC launched from the Taiyaun Space Center, China (TSC). Debris objects in space refer to the collection of defunct objects orbiting the Earth. Examples of debris include non-operational satellites, rocket bodies, and fragments generated from explosions, collisions, or faulty payload assembly.

Loading next visibility...
Identifier
26205, 1999-057CT
Orbit
SSO
Country
Flag of CNCN / PRC
Related business
Manufacturer
Unknown
Mission
Spacecraft
Bus & Motor
Unknown
Mass
Unknown
Launch date (UTC)
1999-10-14 (26 years ago)
Launch vehicle
Unknown
Launch site
Taiyaun Space Center, China (TSC)
Object type
Payload
Rocket body
Debris
Shape & HBR
Unknown shape, 0.1 m
Radar Cross Section
Small (<0.1 m²)

Expand to show TLE details & history
Last TLE update: 12 hours ago

TLE from 12 hours ago
0 CZ-4 DEB
1 26205U 99057CT  25297.69864805  .00000827  00000-0  83808-3 0  9993
2 26205  99.1364 302.8335 0642541  57.7742 308.4015 13.12561553222163
Epoch: 2025-10-24T16:46Z
TLE epoch observation values (Epoch: 2025-10-24T16:46:03.191Z)
Latitude
-0.00006°
Longitude
17.9804°
Altitude
933.406 km
Speed
7.521 km/s
True Right ascension
20h 11m 20s
True Declination
0° 00' 00"
Sunlit
Object was in daylight at epoch
Visualization orbit readout
Latitude
Unknown
Longitude
Unknown
Altitude
Unknown
Speed
Unknown
Apparent Right ascension
Unknown
Apparent Declination
Unknown
Sunlit
N/A
Visualization observer readout
Local Sidereal Time
00:00:47
Azimuth
Unknown
Elevation
Unknown
Doppler factor
Unknown
Orbital elements
Apogee altitude
1,698.179 km
Perigee altitude
722.968 km
Semi-major axis
7,588.71 km
Eccentricity
0.06425
Inclination
99.1364°
RAAN
302.8335°
Arg. of periapsis
57.7742°
True anomaly
302.34038°
Mean anomaly
308.4015°
Eccentric anomaly
305.40064°
Mean motion
3.28315 °/min
Orbital period
109.65 mins
BSTAR
0.00083808
Loading maneuver chart data...
Computing Atmospheric mass density...

Documentation

Showing up to 5 results
|